Time,TemperatureF,DewpointF,PressureIn,WindDirection,WindDirectionDegrees,WindSpeedMPH,WindSpeedGustMPH,Humidity,HourlyPrecipIn,Conditions,Clouds,dailyrainin,SolarRadiationWatts/m^2,SoftwareType,DateUTC
2013-08-15 01:27:00,54.5,48.5,30.00,SE,135,0.0,0.0,80,0.00,CLR,,0.00,0.0,WeatherDisplay:10.37,2013-08-15 06:27:00,
2013-08-15 01:28:00,54.5,48.5,30.00,SE,135,0.0,0.0,80,0.00,CLR,,0.00,0.0,WeatherDisplay:10.37,2013-08-15 06:28:00,
2013-08-15 01:30:00,54.3,48.3,30.00,SE,135,0.0,0.0,80,0.00,CLR,,0.00,0.0,WeatherDisplay:10.37,2013-08-15 06:30:00,
2013-08-15 01:33:00,54.3,48.3,30.00,SE,135,0.0,0.0,80,0.00,CLR,,0.00,0.0,WeatherDisplay:10.37,2013-08-15 06:33:00,
2013-08-15 01:38:00,54.0,47.9,30.00,SE,135,0.0,0.0,80,0.00,CLR,,0.00,0.0,WeatherDisplay:10.37,2013-08-15 06:38:00,
2013-08-15 01:43:00,54.0,47.9,30.00,SE,135,0.0,0.0,80,0.00,CLR,,0.00,0.0,WeatherDisplay:10.37,2013-08-15 06:43:00,
2013-08-15 01:49:00,53.6,47.9,30.00,SE,135,0.0,0.0,81,0.00,CLR,,0.00,0.0,WeatherDisplay:10.37,2013-08-15 06:49:00,
2013-08-15 01:54:00,53.6,47.6,30.00,SE,135,1.1,1.1,80,0.00,CLR,,0.00,0.0,WeatherDisplay:10.37,2013-08-15 06:54:00,
2013-08-15 07:00:00,57.2,54.3,30.03,SSW,202,1.4,1.4,90,0.00,CLR,,0.00,0.0,WeatherDisplay:10.37,2013-08-15 12:00:00,
2013-08-15 07:06:00,57.6,54.0,30.03,SSW,202,1.1,1.1,88,0.00,CLR,,0.00,0.0,WeatherDisplay:10.37,2013-08-15 12:06:00,
2013-08-15 07:11:00,57.7,53.9,30.03,SSW,202,0.0,0.0,87,0.00,CLR,,0.00,0.0,WeatherDisplay:10.37,2013-08-15 12:11:00,
2013-08-15 07:16:00,57.9,54.1,30.06,SSW,202,0.0,0.0,87,0.00,CLR,,0.00,0.0,WeatherDisplay:10.37,2013-08-15 12:16:00,
2013-08-15 07:21:00,58.1,54.6,30.06,SW,225,2.9,2.9,88,0.00,CLR,,0.00,0.0,WeatherDisplay:10.37,2013-08-15 12:21:00,
2013-08-15 07:27:00,58.5,54.9,30.03,SW,225,2.9,2.9,88,0.00,CLR,,0.00,0.0,WeatherDisplay:10.37,2013-08-15 12:27:00,
2013-08-15 07:32:00,58.8,55.3,30.03,SW,225,1.1,2.2,88,0.00,CLR,,0.00,0.0,WeatherDisplay:10.37,2013-08-15 12:32:00,
2013-08-15 07:37:00,59.2,55.6,30.03,SW,225,3.5,3.5,88,0.00,CLR,,0.00,0.0,WeatherDisplay:10.37,2013-08-15 12:37:00,
2013-08-15 07:42:00,59.4,55.5,30.06,SSW,202,2.3,2.3,87,0.00,CLR,,0.00,0.0,WeatherDisplay:10.37,2013-08-15 12:42:00,
2013-08-15 07:47:00,59.7,55.8,30.06,SW,225,2.6,2.6,87,0.00,CLR,,0.00,0.0,WeatherDisplay:10.37,2013-08-15 12:47:00,
2013-08-15 07:52:00,60.1,55.9,30.06,SSW,202,2.3,2.3,86,0.00,CLR,,0.00,0.0,WeatherDisplay:10.37,2013-08-15 12:52:00,
2013-08-15 07:58:00,60.3,55.7,30.03,SW,225,3.6,3.6,85,0.00,CLR,,0.00,0.0,WeatherDisplay:10.37,2013-08-15 12:58:00,
2013-08-15 08:03:00,60.6,55.8,30.03,SW,225,3.5,3.5,84,0.00,CLR,,0.00,0.0,WeatherDisplay:10.37,2013-08-15 13:03:00,
2013-08-15 08:08:00,60.8,55.9,30.03,SW,225,3.5,3.5,84,0.00,CLR,,0.00,0.0,WeatherDisplay:10.37,2013-08-15 13:08:00,
2013-08-15 08:13:00,61.0,55.8,30.03,SSW,202,2.9,2.9,83,0.00,CLR,,0.00,0.0,WeatherDisplay:10.37,2013-08-15 13:13:00,
2013-08-15 08:19:00,61.3,56.1,30.03,SW,225,3.5,3.5,83,0.00,CLR,,0.00,0.0,WeatherDisplay:10.37,2013-08-15 13:19:00,
2013-08-15 08:24:00,61.7,56.1,30.03,SW,225,2.9,2.9,82,0.00,CLR,,0.00,0.0,WeatherDisplay:10.37,2013-08-15 13:24:00,
2013-08-15 08:29:00,61.9,56.3,30.03,SSW,202,2.3,2.4,82,0.00,CLR,,0.00,0.0,WeatherDisplay:10.37,2013-08-15 13:29:00,
2013-08-15 08:34:00,62.4,56.9,30.03,SSW,202,2.4,2.4,82,0.00,CLR,,0.00,0.0,WeatherDisplay:10.37,2013-08-15 13:34:00,
2013-08-15 08:39:00,62.6,56.3,30.03,WSW,248,3.5,3.5,80,0.00,CLR,,0.00,0.0,WeatherDisplay:10.37,2013-08-15 13:39:00,
2013-08-15 08:44:00,63.0,56.3,30.00,SSW,202,3.5,3.5,79,0.00,CLR,,0.00,0.0,WeatherDisplay:10.37,2013-08-15 13:44:00,
2013-08-15 08:50:00,63.1,56.5,30.00,SSW,202,2.6,2.6,79,0.00,CLR,,0.00,0.0,WeatherDisplay:10.37,2013-08-15 13:50:00,
2013-08-15 08:55:00,63.5,56.5,30.00,SSW,202,2.4,2.4,78,0.00,CLR,,0.00,0.0,WeatherDisplay:10.37,2013-08-15 13:55:00,
2013-08-15 09:00:00,63.9,56.5,30.03,SSW,202,5.8,5.8,77,0.00,CLR,,0.00,0.0,WeatherDisplay:10.37,2013-08-15 14:00:00,
2013-08-15 09:05:00,64.0,56.3,30.03,SSW,202,2.4,2.4,76,0.00,CLR,,0.00,0.0,WeatherDisplay:10.37,2013-08-15 14:05:00,
2013-08-15 09:10:00,64.4,56.3,30.03,SW,225,2.4,2.4,75,0.00,CLR,,0.00,0.0,WeatherDisplay:10.37,2013-08-15 14:10:00,
2013-08-15 09:15:00,64.8,56.6,30.03,SSW,202,1.1,1.1,75,0.00,CLR,,0.00,0.0,WeatherDisplay:10.37,2013-08-15 14:15:00,
2013-08-15 09:20:00,65.1,56.2,30.03,SW,225,2.3,2.6,73,0.00,CLR,,0.00,0.0,WeatherDisplay:10.37,2013-08-15 14:20:00,
2013-08-15 09:26:00,65.8,56.2,30.03,SW,225,8.1,8.1,71,0.00,CLR,,0.00,0.0,WeatherDisplay:10.37,2013-08-15 14:26:00,
2013-08-15 09:31:00,66.2,56.1,30.06,WSW,248,4.6,4.6,70,0.00,CLR,,0.00,100.0,WeatherDisplay:10.37,2013-08-15 14:31:00,
2013-08-15 09:36:00,66.9,56.4,30.06,SSW,202,5.8,5.8,69,0.00,CLR,,0.00,0.0,WeatherDisplay:10.37,2013-08-15 14:36:00,
2013-08-15 09:41:00,67.5,55.7,30.06,West,270,4.6,4.6,66,0.00,CLR,,0.00,0.0,WeatherDisplay:10.37,2013-08-15 14:41:00,
2013-08-15 09:46:00,67.8,56.0,30.03,SW,225,3.5,3.5,66,0.00,CLR,,0.00,0.0,WeatherDisplay:10.37,2013-08-15 14:46:00,
2013-08-15 09:51:00,68.4,55.7,30.03,WSW,248,2.3,2.3,64,0.00,CLR,,0.00,0.0,WeatherDisplay:10.37,2013-08-15 14:51:00,
2013-08-15 09:56:00,68.9,55.8,30.03,SSW,202,2.3,2.3,63,0.00,CLR,,0.00,100.0,WeatherDisplay:10.37,2013-08-15 14:56:00,
2013-08-15 10:02:00,69.6,56.0,30.03,WNW,292,2.3,2.3,62,0.00,CLR,,0.00,100.0,WeatherDisplay:10.37,2013-08-15 15:02:00,
2013-08-15 10:07:00,70.0,55.9,30.03,SW,225,2.9,2.9,61,0.00,CLR,,0.00,100.0,WeatherDisplay:10.37,2013-08-15 15:07:00,
2013-08-15 10:12:00,70.7,56.1,30.00,NNE,22,1.1,1.1,60,0.00,CLR,,0.00,100.0,WeatherDisplay:10.37,2013-08-15 15:12:00,
2013-08-15 10:17:00,71.4,56.3,30.00,SW,225,1.1,1.4,59,0.00,CLR,,0.00,100.0,WeatherDisplay:10.37,2013-08-15 15:17:00,
2013-08-15 10:22:00,72.0,55.4,30.00,SW,225,4.6,4.6,56,0.00,CLR,,0.00,200.0,WeatherDisplay:10.37,2013-08-15 15:22:00,
2013-08-15 10:28:00,72.7,55.6,30.03,SSE,158,4.6,4.6,55,0.00,CLR,,0.00,200.0,WeatherDisplay:10.37,2013-08-15 15:28:00,
2013-08-15 10:33:00,73.0,55.9,30.03,East,90,3.5,3.5,55,0.00,CLR,,0.00,200.0,WeatherDisplay:10.37,2013-08-15 15:33:00,
2013-08-15 10:38:00,73.6,55.4,30.03,South,180,3.5,3.5,53,0.00,CLR,,0.00,200.0,WeatherDisplay:10.37,2013-08-15 15:38:00,
2013-08-15 10:43:00,74.1,55.4,30.03,SSW,202,4.6,4.6,52,0.00,CLR,,0.00,200.0,WeatherDisplay:10.37,2013-08-15 15:43:00,
2013-08-15 10:49:00,74.7,55.3,30.03,SSW,202,5.8,5.8,51,0.00,CLR,,0.00,200.0,WeatherDisplay:10.37,2013-08-15 15:49:00,
2013-08-15 10:54:00,75.2,55.8,30.03,SW,225,4.9,4.9,51,0.00,CLR,,0.00,300.0,WeatherDisplay:10.37,2013-08-15 15:54:00,
2013-08-15 10:59:00,75.7,55.2,30.03,NNW,338,2.3,2.3,49,0.00,CLR,,0.00,300.0,WeatherDisplay:10.37,2013-08-15 15:59:00,
2013-08-15 11:04:00,76.5,55.9,30.03,WSW,248,3.5,3.5,49,0.00,CLR,,0.00,300.0,WeatherDisplay:10.37,2013-08-15 16:04:00,
2013-08-15 11:09:00,77.0,55.8,30.03,ENE,68,3.5,3.5,48,0.00,CLR,,0.00,300.0,WeatherDisplay:10.37,2013-08-15 16:09:00,
2013-08-15 11:14:00,77.5,55.7,30.00,South,180,3.8,3.8,47,0.00,CLR,,0.00,300.0,WeatherDisplay:10.37,2013-08-15 16:14:00,
2013-08-15 11:19:00,77.9,55.5,30.00,West,270,6.9,6.9,46,0.00,CLR,,0.00,300.0,WeatherDisplay:10.37,2013-08-15 16:19:00,
2013-08-15 11:25:00,78.4,55.3,30.00,WNW,292,4.6,4.6,45,0.00,CLR,,0.00,300.0,WeatherDisplay:10.37,2013-08-15 16:25:00,
2013-08-15 11:30:00,78.8,54.4,30.06,SW,225,5.8,5.8,43,0.00,CLR,,0.00,300.0,WeatherDisplay:10.37,2013-08-15 16:30:00,
2013-08-15 11:35:00,79.0,53.9,30.06,SW,225,5.8,5.8,42,0.00,CLR,,0.00,400.0,WeatherDisplay:10.37,2013-08-15 16:35:00,
2013-08-15 11:40:00,79.5,54.4,30.06,West,270,2.3,2.3,42,0.00,CLR,,0.00,400.0,WeatherDisplay:10.37,2013-08-15 16:40:00,
2013-08-15 11:45:00,79.9,54.7,30.03,ESE,112,2.3,2.3,42,0.00,CLR,,0.00,400.0,WeatherDisplay:10.37,2013-08-15 16:45:00,
2013-08-15 12:12:00,80.8,54.2,30.03,SW,225,5.8,5.8,40,0.00,CLR,,0.00,400.0,WeatherDisplay:10.37,2013-08-15 17:12:00,
2013-08-15 12:17:00,79.9,53.4,30.03,WSW,248,4.6,4.6,40,0.00,CLR,,0.00,0.0,WeatherDisplay:10.37,2013-08-15 17:17:00,
2013-08-15 12:23:00,79.3,52.2,30.03,NW,315,2.3,2.6,39,0.00,CLR,,0.00,0.0,WeatherDisplay:10.37,2013-08-15 17:23:00,
2013-08-15 12:28:00,78.8,51.7,30.03,WNW,292,4.6,4.6,39,0.00,CLR,,0.00,0.0,WeatherDisplay:10.37,2013-08-15 17:28:00,
2013-08-15 12:34:00,78.3,51.3,30.03,West,270,2.4,2.4,39,0.00,CLR,,0.00,0.0,WeatherDisplay:10.37,2013-08-15 17:34:00,
2013-08-15 12:39:00,78.4,51.4,30.03,South,180,3.5,3.5,39,0.00,CLR,,0.00,500.0,WeatherDisplay:10.37,2013-08-15 17:39:00,
2013-08-15 12:44:00,79.5,52.4,30.03,West,270,2.4,2.4,39,0.00,CLR,,0.00,200.0,WeatherDisplay:10.37,2013-08-15 17:44:00,
2013-08-15 12:49:00,79.9,52.0,30.03,WSW,248,2.3,2.4,38,0.00,CLR,,0.00,200.0,WeatherDisplay:10.37,2013-08-15 17:49:00,
2013-08-15 12:54:00,80.4,52.5,30.03,SW,225,2.3,2.3,38,0.00,CLR,,0.00,600.0,WeatherDisplay:10.37,2013-08-15 17:54:00,
2013-08-15 13:00:00,81.3,53.3,30.03,West,270,2.9,2.9,38,0.00,CLR,,0.00,600.0,WeatherDisplay:10.37,2013-08-15 18:00:00,
2013-08-15 13:05:00,82.0,53.2,30.03,NW,315,2.3,2.3,37,0.00,CLR,,0.00,0.0,WeatherDisplay:10.37,2013-08-15 18:05:00,
2013-08-15 13:10:00,82.4,52.8,30.03,SW,225,2.3,2.3,36,0.00,CLR,,0.00,100.0,WeatherDisplay:10.37,2013-08-15 18:10:00,
2013-08-15 13:15:00,81.9,52.3,30.03,SSW,202,5.8,5.8,36,0.00,CLR,,0.00,0.0,WeatherDisplay:10.37,2013-08-15 18:15:00,
2013-08-15 13:20:00,81.1,50.9,30.03,SW,225,3.5,3.5,35,0.00,CLR,,0.00,0.0,WeatherDisplay:10.37,2013-08-15 18:20:00,
2013-08-15 13:25:00,81.5,51.2,30.03,NNE,22,3.5,3.5,35,0.00,CLR,,0.00,500.0,WeatherDisplay:10.37,2013-08-15 18:25:00,
2013-08-15 13:31:00,80.6,49.6,30.03,SW,225,6.9,6.9,34,0.00,CLR,,0.00,0.0,WeatherDisplay:10.37,2013-08-15 18:31:00,
2013-08-15 13:36:00,79.7,49.6,30.03,SW,225,6.9,6.9,35,0.00,CLR,,0.00,0.0,WeatherDisplay:10.37,2013-08-15 18:36:00,
2013-08-15 13:41:00,79.3,49.3,30.03,SW,225,5.8,5.8,35,0.00,CLR,,0.00,100.0,WeatherDisplay:10.37,2013-08-15 18:41:00,
2013-08-15 13:46:00,78.8,48.8,30.03,SW,225,5.8,5.8,35,0.00,CLR,,0.00,0.0,WeatherDisplay:10.37,2013-08-15 18:46:00,
2013-08-15 13:52:00,78.4,49.3,30.03,NW,315,1.1,1.1,36,0.00,CLR,,0.00,100.0,WeatherDisplay:10.37,2013-08-15 18:52:00,
2013-08-15 13:57:00,78.4,49.3,30.03,SSW,202,4.6,4.6,36,0.00,CLR,,0.00,0.0,WeatherDisplay:10.37,2013-08-15 18:57:00,
2013-08-15 14:02:00,78.1,48.9,30.03,WSW,248,5.8,5.8,36,0.00,CLR,,0.00,0.0,WeatherDisplay:10.37,2013-08-15 19:02:00,
2013-08-15 14:08:00,77.9,48.8,30.03,SW,225,2.3,2.3,36,0.00,CLR,,0.00,0.0,WeatherDisplay:10.37,2013-08-15 19:08:00,
2013-08-15 14:13:00,78.3,49.1,30.03,SW,225,2.4,2.4,36,0.00,CLR,,0.00,400.0,WeatherDisplay:10.37,2013-08-15 19:13:00,
2013-08-15 14:18:00,79.3,50.1,30.03,West,270,4.6,4.6,36,0.00,CLR,,0.00,400.0,WeatherDisplay:10.37,2013-08-15 19:18:00,
2013-08-15 14:23:00,79.2,49.9,30.03,SSE,158,5.8,5.8,36,0.00,CLR,,0.00,400.0,WeatherDisplay:10.37,2013-08-15 19:23:00,
2013-08-15 14:28:00,79.0,49.0,30.00,SW,225,5.8,5.8,35,0.00,CLR,,0.00,0.0,WeatherDisplay:10.37,2013-08-15 19:28:00,
2013-08-15 14:33:00,78.8,48.8,30.00,SSW,202,2.3,2.3,35,0.00,CLR,,0.00,400.0,WeatherDisplay:10.37,2013-08-15 19:33:00,
2013-08-15 14:38:00,80.1,49.9,30.00,West,270,6.9,6.9,35,0.00,CLR,,0.00,400.0,WeatherDisplay:10.37,2013-08-15 19:38:00,
2013-08-15 14:45:00,81.1,50.1,30.03,WSW,248,6.9,6.9,34,0.00,CLR,,0.00,400.0,WeatherDisplay:10.37,2013-08-15 19:45:00,
2013-08-15 14:51:00,81.3,50.3,30.03,South,180,3.5,4.0,34,0.00,CLR,,0.00,100.0,WeatherDisplay:10.37,2013-08-15 19:51:00,
2013-08-15 14:56:00,81.0,49.9,30.03,SW,225,1.1,1.1,34,0.00,CLR,,0.00,400.0,WeatherDisplay:10.37,2013-08-15 19:56:00,
2013-08-15 15:02:00,80.4,50.3,30.00,SW,225,4.6,4.6,35,0.00,CLR,,0.00,0.0,WeatherDisplay:10.37,2013-08-15 20:02:00,
2013-08-15 15:07:00,79.9,49.8,30.00,SW,225,1.1,2.6,35,0.00,CLR,,0.00,0.0,WeatherDisplay:10.37,2013-08-15 20:07:00,
2013-08-15 15:12:00,79.7,49.6,30.00,South,180,1.1,0.0,35,0.00,CLR,,0.00,0.0,WeatherDisplay:10.37,2013-08-15 20:12:00,
2013-08-15 15:18:00,79.3,48.5,30.00,SW,225,1.6,1.6,34,0.00,CLR,,0.00,0.0,WeatherDisplay:10.37,2013-08-15 20:18:00,
2013-08-15 15:23:00,79.5,48.7,30.00,NNE,22,1.1,1.4,34,0.00,CLR,,0.00,300.0,WeatherDisplay:10.37,2013-08-15 20:23:00,
2013-08-15 15:28:00,79.9,49.0,30.00,NW,315,3.5,3.5,34,0.00,CLR,,0.00,300.0,WeatherDisplay:10.37,2013-08-15 20:28:00,
2013-08-15 15:33:00,80.2,49.3,30.00,SW,225,4.6,4.6,34,0.00,CLR,,0.00,300.0,WeatherDisplay:10.37,2013-08-15 20:33:00,
2013-08-15 15:38:00,80.4,48.7,30.00,SSW,202,5.8,5.8,33,0.00,CLR,,0.00,100.0,WeatherDisplay:10.37,2013-08-15 20:38:00,
2013-08-15 15:43:00,80.6,48.8,30.00,SSW,202,6.9,6.9,33,0.00,CLR,,0.00,200.0,WeatherDisplay:10.37,2013-08-15 20:43:00,
2013-08-15 15:49:00,80.4,49.5,30.00,SSW,202,4.6,4.6,34,0.00,CLR,,0.00,0.0,WeatherDisplay:10.37,2013-08-15 20:49:00,
2013-08-15 15:54:00,80.1,48.4,30.00,SW,225,2.3,3.1,33,0.00,CLR,,0.00,300.0,WeatherDisplay:10.37,2013-08-15 20:54:00,
2013-08-15 15:59:00,79.7,48.0,30.00,West,270,2.4,2.4,33,0.00,CLR,,0.00,0.0,WeatherDisplay:10.37,2013-08-15 20:59:00,
2013-08-15 16:04:00,79.3,47.7,30.00,SW,225,1.1,1.1,33,0.00,CLR,,0.00,0.0,WeatherDisplay:10.37,2013-08-15 21:04:00,
2013-08-15 16:10:00,79.0,48.2,30.00,SSW,202,0.0,0.0,34,0.00,CLR,,0.00,0.0,WeatherDisplay:10.37,2013-08-15 21:10:00,
2013-08-15 16:15:00,78.8,48.1,30.00,SSE,158,2.3,2.3,34,0.00,CLR,,0.00,0.0,WeatherDisplay:10.37,2013-08-15 21:15:00,
2013-08-15 16:21:00,78.6,47.9,30.00,SSW,202,2.3,0.0,34,0.00,CLR,,0.00,200.0,WeatherDisplay:10.37,2013-08-15 21:21:00,
2013-08-15 16:26:00,79.0,47.4,30.00,SSW,202,4.6,4.6,33,0.00,CLR,,0.00,0.0,WeatherDisplay:10.37,2013-08-15 21:26:00,
2013-08-15 16:31:00,79.3,47.7,30.00,SW,225,3.5,3.5,33,0.00,CLR,,0.00,200.0,WeatherDisplay:10.37,2013-08-15 21:31:00,
2013-08-15 16:36:00,79.3,47.7,30.00,SSW,202,2.3,2.3,33,0.00,CLR,,0.00,0.0,WeatherDisplay:10.37,2013-08-15 21:36:00,
2013-08-15 16:41:00,79.0,47.4,30.00,SSW,202,2.3,2.3,33,0.00,CLR,,0.00,0.0,WeatherDisplay:10.37,2013-08-15 21:41:00,
2013-08-15 16:46:00,78.6,47.9,30.00,SSW,202,0.0,1.1,34,0.00,CLR,,0.00,0.0,WeatherDisplay:10.37,2013-08-15 21:46:00,
2013-08-15 16:51:00,78.3,46.8,30.00,SSW,202,5.8,5.8,33,0.00,CLR,,0.00,0.0,WeatherDisplay:10.37,2013-08-15 21:51:00,
2013-08-15 16:56:00,78.4,46.9,30.00,SW,225,5.8,5.8,33,0.00,CLR,,0.00,0.0,WeatherDisplay:10.37,2013-08-15 21:56:00,
2013-08-15 17:02:00,78.8,47.3,30.00,SW,225,6.4,6.4,33,0.00,CLR,,0.00,100.0,WeatherDisplay:10.37,2013-08-15 22:02:00,
2013-08-15 17:07:00,79.0,47.4,30.00,SSW,202,3.5,3.5,33,0.00,CLR,,0.00,0.0,WeatherDisplay:10.37,2013-08-15 22:07:00,
2013-08-15 17:12:00,79.0,47.4,30.00,SSW,202,0.0,3.1,33,0.00,CLR,,0.00,0.0,WeatherDisplay:10.37,2013-08-15 22:12:00,
2013-08-15 17:17:00,78.6,47.9,30.00,South,180,3.8,3.8,34,0.00,CLR,,0.00,0.0,WeatherDisplay:10.37,2013-08-15 22:17:00,
2013-08-15 17:22:00,78.4,47.7,30.00,SSW,202,3.5,3.5,34,0.00,CLR,,0.00,0.0,WeatherDisplay:10.37,2013-08-15 22:22:00,
2013-08-15 17:27:00,78.4,47.7,30.00,SW,225,5.9,5.9,34,0.00,CLR,,0.00,0.0,WeatherDisplay:10.37,2013-08-15 22:27:00,
2013-08-15 17:33:00,78.1,47.4,30.00,SW,225,3.8,4.0,34,0.00,CLR,,0.00,0.0,WeatherDisplay:10.37,2013-08-15 22:33:00,
2013-08-15 17:38:00,77.9,47.3,30.00,SSW,202,4.9,4.9,34,0.00,CLR,,0.00,0.0,WeatherDisplay:10.37,2013-08-15 22:38:00,
2013-08-15 17:43:00,77.7,47.1,30.00,SSW,202,5.8,5.8,34,0.00,CLR,,0.00,0.0,WeatherDisplay:10.37,2013-08-15 22:43:00,
2013-08-15 17:48:00,77.7,47.1,30.00,WSW,248,4.6,4.6,34,0.00,CLR,,0.00,0.0,WeatherDisplay:10.37,2013-08-15 22:48:00,
2013-08-15 17:53:00,77.5,46.9,30.00,SSW,202,3.5,3.5,34,0.00,CLR,,0.00,0.0,WeatherDisplay:10.37,2013-08-15 22:53:00,
2013-08-15 17:58:00,77.2,46.6,30.00,SSW,202,2.3,2.3,34,0.00,CLR,,0.00,0.0,WeatherDisplay:10.37,2013-08-15 22:58:00,
2013-08-15 18:03:00,77.0,47.2,30.00,SSW,202,0.0,0.0,35,0.00,CLR,,0.00,0.0,WeatherDisplay:10.37,2013-08-15 23:03:00,
2013-08-15 18:09:00,76.6,46.9,30.00,SSW,202,3.8,3.8,35,0.00,CLR,,0.00,0.0,WeatherDisplay:10.37,2013-08-15 23:09:00,
2013-08-15 18:14:00,76.5,47.5,30.00,SSW,202,3.5,3.5,36,0.00,CLR,,0.00,0.0,WeatherDisplay:10.37,2013-08-15 23:14:00,
2013-08-15 18:19:00,76.3,47.4,30.00,SSW,202,0.0,0.0,36,0.00,CLR,,0.00,0.0,WeatherDisplay:10.37,2013-08-15 23:19:00,
2013-08-15 18:24:00,76.1,47.2,30.00,SSW,202,2.3,2.3,36,0.00,CLR,,0.00,0.0,WeatherDisplay:10.37,2013-08-15 23:24:00,
2013-08-15 18:29:00,76.1,47.2,30.00,SE,135,1.1,1.6,36,0.00,CLR,,0.00,0.0,WeatherDisplay:10.37,2013-08-15 23:29:00,
2013-08-15 18:34:00,75.9,47.0,30.00,SW,225,6.0,6.0,36,0.00,CLR,,0.00,0.0,WeatherDisplay:10.37,2013-08-15 23:34:00,
2013-08-15 18:39:00,75.7,47.6,30.00,SW,225,1.4,0.0,37,0.00,CLR,,0.00,0.0,WeatherDisplay:10.37,2013-08-15 23:39:00,
2013-08-15 18:44:00,75.7,47.6,30.00,SSW,202,3.5,3.5,37,0.00,CLR,,0.00,0.0,WeatherDisplay:10.37,2013-08-15 23:44:00,
2013-08-15 18:50:00,75.6,47.5,30.00,SSW,202,2.9,2.9,37,0.00,CLR,,0.00,0.0,WeatherDisplay:10.37,2013-08-15 23:50:00,
2013-08-15 18:55:00,75.4,47.3,30.00,SSW,202,3.5,3.5,37,0.00,CLR,,0.00,0.0,WeatherDisplay:10.37,2013-08-15 23:55:00,
2013-08-15 19:00:00,75.2,47.1,30.03,SSW,202,4.6,4.6,37,0.00,CLR,,0.00,0.0,WeatherDisplay:10.37,2013-08-16 00:00:00,
2013-08-15 19:05:00,75.0,47.7,30.03,SSW,202,3.5,3.5,38,0.00,CLR,,0.00,0.0,WeatherDisplay:10.37,2013-08-16 00:05:00,
2013-08-15 19:10:00,74.8,48.2,30.03,SSW,202,2.3,2.3,39,0.00,CLR,,0.00,0.0,WeatherDisplay:10.37,2013-08-16 00:10:00,
2013-08-15 19:16:00,74.7,48.1,30.03,SSW,202,2.3,2.3,39,0.00,CLR,,0.00,0.0,WeatherDisplay:10.37,2013-08-16 00:16:00,
2013-08-15 19:21:00,74.5,47.9,30.03,SSW,202,2.6,2.6,39,0.00,CLR,,0.00,0.0,WeatherDisplay:10.37,2013-08-16 00:21:00,
2013-08-15 19:26:00,74.1,48.2,30.03,SSW,202,3.5,3.5,40,0.00,CLR,,0.00,0.0,WeatherDisplay:10.37,2013-08-16 00:26:00,
2013-08-15 19:31:00,73.8,47.9,30.00,SSW,202,2.3,2.3,40,0.00,CLR,,0.00,0.0,WeatherDisplay:10.37,2013-08-16 00:31:00,
2013-08-15 19:36:00,73.4,47.6,30.00,SSW,202,1.4,1.4,40,0.00,CLR,,0.00,0.0,WeatherDisplay:10.37,2013-08-16 00:36:00,
2013-08-15 19:41:00,73.0,47.9,30.03,SSW,202,3.5,3.5,41,0.00,CLR,,0.00,0.0,WeatherDisplay:10.37,2013-08-16 00:41:00,
2013-08-15 19:46:00,72.7,47.6,30.03,SSW,202,1.1,1.6,41,0.00,CLR,,0.00,0.0,WeatherDisplay:10.37,2013-08-16 00:46:00,
2013-08-15 19:52:00,72.3,47.9,30.03,SW,225,2.6,2.6,42,0.00,CLR,,0.00,0.0,WeatherDisplay:10.37,2013-08-16 00:52:00,
2013-08-15 19:57:00,72.0,47.6,30.03,SSW,202,1.1,1.4,42,0.00,CLR,,0.00,0.0,WeatherDisplay:10.37,2013-08-16 00:57:00,
2013-08-15 20:02:00,71.6,47.3,30.03,SSW,202,2.3,2.3,42,0.00,CLR,,0.00,0.0,WeatherDisplay:10.37,2013-08-16 01:02:00,
2013-08-15 20:07:00,71.2,47.6,30.03,SSW,202,1.6,1.6,43,0.00,CLR,,0.00,0.0,WeatherDisplay:10.37,2013-08-16 01:07:00,
2013-08-15 20:13:00,70.9,47.3,30.03,SSW,202,1.1,1.1,43,0.00,CLR,,0.00,0.0,WeatherDisplay:10.37,2013-08-16 01:13:00,
2013-08-15 20:18:00,70.5,46.9,30.03,SW,225,1.4,1.4,43,0.00,CLR,,0.00,0.0,WeatherDisplay:10.37,2013-08-16 01:18:00,
2013-08-15 20:23:00,70.2,46.6,30.03,SW,225,1.4,1.4,43,0.00,CLR,,0.00,0.0,WeatherDisplay:10.37,2013-08-16 01:23:00,
2013-08-15 20:28:00,69.6,46.7,30.03,SSW,202,0.0,0.0,44,0.00,CLR,,0.00,0.0,WeatherDisplay:10.37,2013-08-16 01:28:00,
2013-08-15 20:33:00,69.3,47.0,30.03,SSW,202,0.0,0.0,45,0.00,CLR,,0.00,0.0,WeatherDisplay:10.37,2013-08-16 01:33:00,
2013-08-15 20:38:00,68.7,46.5,30.03,SSW,202,0.0,0.0,45,0.00,CLR,,0.00,0.0,WeatherDisplay:10.37,2013-08-16 01:38:00,
2013-08-15 20:43:00,68.4,46.2,30.03,SSW,202,0.0,0.0,45,0.00,CLR,,0.00,0.0,WeatherDisplay:10.37,2013-08-16 01:43:00,
2013-08-15 20:48:00,67.8,46.3,30.03,SSW,202,0.0,0.0,46,0.00,CLR,,0.00,0.0,WeatherDisplay:10.37,2013-08-16 01:48:00,
2013-08-15 20:54:00,67.3,46.4,30.03,SSW,202,0.0,0.0,47,0.00,CLR,,0.00,0.0,WeatherDisplay:10.37,2013-08-16 01:54:00,
2013-08-15 20:59:00,66.9,46.0,30.03,SSW,202,0.0,0.0,47,0.00,CLR,,0.00,0.0,WeatherDisplay:10.37,2013-08-16 01:59:00,
2013-08-15 21:04:00,66.2,45.9,30.03,SSW,202,0.0,0.0,48,0.00,CLR,,0.00,0.0,WeatherDisplay:10.37,2013-08-16 02:04:00,
2013-08-15 21:09:00,65.8,46.1,30.03,SSW,202,0.0,0.0,49,0.00,CLR,,0.00,0.0,WeatherDisplay:10.37,2013-08-16 02:09:00,
2013-08-15 21:14:00,65.5,46.3,30.03,SSW,202,0.0,0.0,50,0.00,CLR,,0.00,0.0,WeatherDisplay:10.37,2013-08-16 02:14:00,
2013-08-15 21:19:00,64.9,45.8,30.03,South,180,0.0,0.0,50,0.00,CLR,,0.00,0.0,WeatherDisplay:10.37,2013-08-16 02:19:00,
2013-08-15 21:24:00,64.4,45.9,30.03,South,180,0.0,0.0,51,0.00,CLR,,0.00,0.0,WeatherDisplay:10.37,2013-08-16 02:24:00,
2013-08-15 21:29:00,64.2,46.2,30.03,South,180,0.0,0.0,52,0.00,CLR,,0.00,0.0,WeatherDisplay:10.37,2013-08-16 02:29:00,
2013-08-15 21:35:00,63.5,46.1,30.03,South,180,1.1,0.0,53,0.00,CLR,,0.00,0.0,WeatherDisplay:10.37,2013-08-16 02:35:00,
2013-08-15 21:40:00,63.1,46.2,30.03,South,180,0.0,0.0,54,0.00,CLR,,0.00,0.0,WeatherDisplay:10.37,2013-08-16 02:40:00,
2013-08-15 21:45:00,62.8,46.4,30.00,South,180,0.0,0.0,55,0.00,CLR,,0.00,0.0,WeatherDisplay:10.37,2013-08-16 02:45:00,
2013-08-15 21:50:00,62.4,46.5,30.00,South,180,0.0,0.0,56,0.00,CLR,,0.00,0.0,WeatherDisplay:10.37,2013-08-16 02:50:00,
2013-08-15 21:56:00,62.2,46.8,30.00,South,180,0.0,0.0,57,0.00,CLR,,0.00,0.0,WeatherDisplay:10.37,2013-08-16 02:56:00,
2013-08-15 22:01:00,61.9,46.9,30.03,South,180,0.0,0.0,58,0.00,CLR,,0.00,0.0,WeatherDisplay:10.37,2013-08-16 03:01:00,
2013-08-15 22:06:00,61.7,46.8,30.03,South,180,0.0,0.0,58,0.00,CLR,,0.00,0.0,WeatherDisplay:10.37,2013-08-16 03:06:00,
2013-08-15 22:11:00,61.3,46.9,30.03,South,180,0.0,0.0,59,0.00,CLR,,0.00,0.0,WeatherDisplay:10.37,2013-08-16 03:11:00,
2013-08-15 22:16:00,61.0,47.0,30.03,South,180,0.0,0.0,60,0.00,CLR,,0.00,0.0,WeatherDisplay:10.37,2013-08-16 03:16:00,
2013-08-15 22:21:00,60.8,47.3,30.03,South,180,0.0,0.0,61,0.00,CLR,,0.00,0.0,WeatherDisplay:10.37,2013-08-16 03:21:00,
2013-08-15 22:26:00,60.6,47.5,30.06,South,180,0.0,0.0,62,0.00,CLR,,0.00,0.0,WeatherDisplay:10.37,2013-08-16 03:26:00,
2013-08-15 22:31:00,60.4,47.8,30.06,South,180,0.0,0.0,63,0.00,CLR,,0.00,0.0,WeatherDisplay:10.37,2013-08-16 03:31:00,
2013-08-15 22:37:00,60.1,47.4,30.06,South,180,0.0,0.0,63,0.00,CLR,,0.00,0.0,WeatherDisplay:10.37,2013-08-16 03:37:00,
2013-08-15 22:42:00,59.9,47.7,30.03,South,180,0.0,0.0,64,0.00,CLR,,0.00,0.0,WeatherDisplay:10.37,2013-08-16 03:42:00,
2013-08-15 22:47:00,59.7,48.3,30.03,South,180,0.0,0.0,66,0.00,CLR,,0.00,0.0,WeatherDisplay:10.37,2013-08-16 03:47:00,
2013-08-15 22:52:00,59.4,48.4,30.03,South,180,0.0,0.0,67,0.00,CLR,,0.00,0.0,WeatherDisplay:10.37,2013-08-16 03:52:00,
2013-08-15 22:57:00,59.2,48.2,30.03,South,180,0.0,0.0,67,0.00,CLR,,0.00,0.0,WeatherDisplay:10.37,2013-08-16 03:57:00,
2013-08-15 23:01:00,59.2,48.6,30.03,South,180,0.0,0.0,68,0.00,CLR,,0.00,0.0,WeatherDisplay:10.37,2013-08-16 04:01:00,
2013-08-15 23:02:00,59.2,48.6,30.03,South,180,0.0,0.0,68,0.00,CLR,,0.00,0.0,WeatherDisplay:10.37,2013-08-16 04:02:00,
2013-08-15 23:04:00,59.0,48.4,30.03,South,180,0.0,0.0,68,0.00,CLR,,0.00,0.0,WeatherDisplay:10.37,2013-08-16 04:04:00,
2013-08-15 23:09:00,58.8,48.7,30.03,South,180,0.0,0.0,69,0.00,CLR,,0.00,0.0,WeatherDisplay:10.37,2013-08-16 04:09:00,
2013-08-15 23:14:00,58.6,48.5,30.03,South,180,0.0,0.0,69,0.00,CLR,,0.00,0.0,WeatherDisplay:10.37,2013-08-16 04:14:00,
2013-08-15 23:20:00,58.5,48.7,30.03,South,180,0.0,0.0,70,0.00,CLR,,0.00,0.0,WeatherDisplay:10.37,2013-08-16 04:20:00,
2013-08-15 23:25:00,58.1,48.4,30.03,South,180,0.0,0.0,70,0.00,CLR,,0.00,0.0,WeatherDisplay:10.37,2013-08-16 04:25:00,
2013-08-15 23:30:00,57.9,48.2,30.03,South,180,0.0,0.0,70,0.00,CLR,,0.00,0.0,WeatherDisplay:10.37,2013-08-16 04:30:00,
2013-08-15 23:35:00,57.7,48.4,30.03,South,180,0.0,0.0,71,0.00,CLR,,0.00,0.0,WeatherDisplay:10.37,2013-08-16 04:35:00,
2013-08-15 23:40:00,57.6,48.2,30.03,South,180,0.0,0.0,71,0.00,CLR,,0.00,0.0,WeatherDisplay:10.37,2013-08-16 04:40:00,
2013-08-15 23:46:00,57.4,48.4,30.03,South,180,0.0,0.0,72,0.00,CLR,,0.00,0.0,WeatherDisplay:10.37,2013-08-16 04:46:00,
2013-08-15 23:51:00,57.2,48.3,30.03,South,180,0.0,0.0,72,0.00,CLR,,0.00,0.0,WeatherDisplay:10.37,2013-08-16 04:51:00,
2013-08-15 23:56:00,57.0,48.4,30.03,South,180,0.0,0.0,73,0.00,CLR,,0.00,0.0,WeatherDisplay:10.37,2013-08-16 04:56:00,